"2009-08-11 00:00:00",1140769,3.85,111.7,4.763,0.258,20.39,110.0309,24.97,26.01,22,0,111.3,13.1,25.81,73.7
"2009-08-11 00:00:30",1140770,3.616,102.2,7.851,0.607,20.47,110.0353,24.99,25.99,22.12,0,111.3,13.1,25.82,64.2
"2009-08-11 00:01:00",1140771,4.04,118.5,4.165,0.332,20.43,110.0107,24.92,25.98,22.35,0,111.3,13.1,25.76,80.5
"2009-08-11 00:01:30",1140772,4.139,117.4,6.853,0.431,20.45,110.0003,24.9,25.94,22.39,0,111.3,13.09,25.73,79.4
"2009-08-11 00:02:00",1140773,4.197,113.6,7.321,0.274,20.38,109.9978,24.89,25.92,22.06,0,111.3,13.09,25.73,75.6
"2009-08-11 00:02:30",1140774,5.305,111,6.644,0.216,20.49,109.9906,24.87,25.89,22.14,0,111.3,13.09,25.71,73.0
"2009-08-11 00:03:00",1140775,4.565,124.8,2.426,0.307,20.34,109.9826,24.85,25.88,21.99,0,111.3,13.09,25.69,86.8
"2009-08-11 00:03:30",1140776,4.215,128.1,2.794,0.284,20.35,109.9789,24.84,25.86,21.98,0,111.3,13.09,25.68,90.1
"2009-08-11 00:04:00",1140777,5.016,121.8,2.905,0.895,20.55,109.9802,24.84,25.85,22.03,0,111.3,13.09,25.68,83.8
"2009-08-11 00:04:30",1140778,5.179,126.6,6.798,0.577,20.61,109.9827,24.85,25.85,22.1,0,111.3,13.09,25.69,88.6
"2009-08-11 00:05:00",1140779,4.582,108.4,4.206,0.375,20.65,109.9855,24.86,25.83,22.13,0,111.3,13.09,25.70,70.4
"2009-08-11 00:05:30",1140780,5.722,106.2,5.986,0.49,20.59,109.9864,24.86,25.86,22,0,111.3,13.09,25.70,68.2
"2009-08-11 00:06:00",1140781,5.492,112.5,4.404,0.478,20.64,109.988,24.86,25.83,22.01,0,111.3,13.09,25.70,74.5
"2009-08-11 00:06:30",1140782,5.739,118.7,3.331,0.431,20.65,109.9873,24.86,25.82,22.03,0,111.3,13.09,25.70,80.7
"2009-08-11 00:07:00",1140783,4.732,121.5,3.52,0.371,20.6,109.9781,24.84,25.84,22.3,0,111.3,13.09,25.68,83.5
"2009-08-11 00:07:30",1140784,5.565,126.9,5.862,0.58,20.67,109.9694,24.82,25.83,22.12,0,111.3,13.1,25.65,88.9
"2009-08-11 00:08:00",1140785,5.228,126.2,4.253,0.235,20.84,109.9635,24.8,25.82,22.16,0,111.3,13.1,25.64,88.2
"2009-08-11 00:08:30",1140786,5.114,114.5,5.171,0.393,20.87,109.9543,24.78,25.79,22.47,0,111.3,13.1,25.62,76.5
"2009-08-11 00:09:00",1140787,5.029,137.7,5.84,0.577,20.86,109.9335,24.72,25.75,22.29,0,111.3,13.1,25.56,99.7
"2009-08-11 00:09:30",1140788,4.045,144.9,7.173,0.299,20.95,109.9245,24.7,25.72,22.26,0,111.3,13.1,25.54,106.9
"2009-08-11 00:10:00",1140789,3.676,130.2,3.267,0.341,21.06,109.914,24.67,25.7,22.37,0,111.3,13.1,25.51,92.2
"2009-08-11 00:10:30",1140790,4.264,133.6,2.858,0.304,21.16,109.8931,24.62,25.67,22.55,0,111.3,13.1,25.46,95.6
"2009-08-11 00:11:00",1140791,4.664,133.6,2.467,0.196,21.17,109.8956,24.63,25.63,22.62,0,111.3,13.1,25.46,95.6
"2009-08-11 00:11:30",1140792,4.299,133,3.475,0.36,21.06,109.8966,24.63,25.62,22.55,0,111.3,13.1,25.47,95.0
"2009-08-11 00:12:00",1140793,4.781,130,6.255,0.381,20.98,109.8779,24.58,25.57,22.81,0,111.3,13.1,25.42,92.0
"2009-08-11 00:12:30",1140794,4.724,133.2,6.44,0.36,20.92,109.861,24.54,25.55,22.83,0,111.3,13.1,25.37,95.2
"2009-08-11 00:13:00",1140795,4.491,136.2,4.041,0.279,20.65,109.8339,24.47,25.51,22.72,0,111.3,13.1,25.31,98.2
"2009-08-11 00:13:30",1140796,4.381,138,2.829,0.243,20.78,109.8316,24.46,25.48,22.76,0,111.3,13.1,25.30,100.0
"2009-08-11 00:14:00",1140797,4.766,136.3,2.736,0.378,20.77,109.8316,24.46,25.47,22.86,0,111.3,13.1,25.30,98.3
"2009-08-11 00:14:30",1140798,4.63,129.2,3.596,0.587,20.62,109.8316,24.46,25.43,23.16,0,111.3,13.1,25.30,91.2
"2009-08-11 00:15:00",1140799,4.36,143.6,7.278,0.328,20.53,109.8308,24.46,25.43,22.95,0,111.3,13.1,25.30,105.6
"2009-08-11 00:15:30",1140800,3.686,155.8,2.711,0.144,20.5,109.8302,24.46,25.42,22.66,0,111.3,13.1,25.30,117.8
"2009-08-11 00:16:00",1140801,3.58,160.8,2.701,0.205,20.45,109.8314,24.46,25.41,22.61,0,111.2,13.1,25.30,122.8
"2009-08-11 00:16:30",1140802,3.139,161.4,3.524,0.108,20.36,109.8316,24.46,25.42,22.59,0,111.3,13.1,25.30,123.4
"2009-08-11 00:17:00",1140803,3.056,158.8,2.983,0.081,20.36,109.8316,24.46,25.41,22.52,0,111.2,13.1,25.30,120.8
"2009-08-11 00:17:30",1140804,3.711,149.8,4.767,0.358,20.33,109.8316,24.46,25.42,22.53,0,111.2,13.1,25.30,111.8
"2009-08-11 00:18:00",1140805,4.325,152.4,6.296,0.223,20.51,109.8316,24.46,25.45,22.53,0,111.2,13.1,25.30,114.4
"2009-08-11 00:18:30",1140806,4.083,154.3,3.902,0.398,20.61,109.8333,24.47,25.44,22.51,0,111.2,13.1,25.30,116.3
"2009-08-11 00:19:00",1140807,3.472,165,4.103,0.247,20.6,109.8375,24.48,25.45,22.44,0,111.2,13.1,25.31,127.0
"2009-08-11 00:19:30",1140808,3.298,166.9,4.097,0.197,20.54,109.8454,24.5,25.47,22.48,0,111.2,13.1,25.33,128.9
"2009-08-11 00:20:00",1140809,3.258,159.1,4.556,0.149,20.42,109.8504,24.51,25.49,22.44,0,111.2,13.1,25.35,121.1
"2009-08-11 00:20:30",1140810,3.333,163.2,2.188,0.142,20.47,109.8625,24.54,25.51,22.41,0,111.2,13.1,25.38,125.2
"2009-08-11 00:21:00",1140811,3.497,164.7,2.586,0.132,20.65,109.8653,24.55,25.5,22.34,0,111.2,13.1,25.39,126.7
"2009-08-11 00:21:30",1140812,3.609,167.1,1.888,0.244,20.71,109.8653,24.55,25.52,22.42,0,111.2,13.1,25.39,129.1
"2009-08-11 00:22:00",1140813,2.933,162.3,5.385,0.214,20.62,109.8653,24.55,25.52,22.33,0,111.2,13.1,25.39,124.3
"2009-08-11 00:22:30",1140814,2.248,149.5,6.203,0.249,20.43,109.8653,24.55,25.53,22.34,0,111.2,13.1,25.39,111.5
"2009-08-11 00:23:00",1140815,2.164,158.1,5.143,0.268,20.4,109.8653,24.55,25.55,22.39,0,111.2,13.1,25.39,120.1
"2009-08-11 00:23:30",1140816,2.952,167.5,6.285,0.281,20.43,109.8665,24.55,25.55,22.43,0,111.2,13.1,25.39,129.5
"2009-08-11 00:24:00",1140817,3.331,155.4,4.008,0.156,20.31,109.8712,24.56,25.57,22.28,0,111.2,13.1,25.40,117.4
"2009-08-11 00:24:30",1140818,3.42,151.6,3.292,0.169,20.31,109.8754,24.57,25.59,22.28,0,111.2,13.1,25.41,113.6
"2009-08-11 00:25:00",1140819,3.61,132.9,3.796,0.169,20.3,109.8838,24.6,25.59,22.23,0,111.2,13.1,25.43,94.9
"2009-08-11 00:25:30",1140820,3.396,140.8,4.761,0.226,20.35,109.8945,24.62,25.6,22.25,0,111.2,13.1,25.46,102.8
"2009-08-11 00:26:00",1140821,3.43,139.7,4.173,0.328,20.39,109.8993,24.64,25.59,22.29,0,111.2,13.1,25.47,101.7
"2009-08-11 00:26:30",1140822,3.381,132.5,1.792,0.217,20.41,109.899,24.63,25.62,22.2,0,111.2,13.1,25.47,94.5
"2009-08-11 00:27:00",1140823,3.417,138,5.721,0.282,20.54,109.8993,24.64,25.61,22.27,0,111.2,13.1,25.47,100.0
"2009-08-11 00:27:30",1140824,3.716,132.2,1.897,0.428,20.49,109.8993,24.64,25.62,22.3,0,111.2,13.1,25.47,94.2
"2009-08-11 00:28:00",1140825,3.76,134.5,5.32,0.171,20.45,109.899,24.63,25.63,22.28,0,111.2,13.1,25.47,96.5
"2009-08-11 00:28:30",1140826,4.308,145.7,4.37,0.171,20.44,109.901,24.64,25.66,22.08,0,111.2,13.1,25.48,107.7
"2009-08-11 00:29:00",1140827,4.16,146.3,2.438,0.109,20.41,109.9055,24.65,25.66,21.99,0,111.2,13.1,25.49,108.3
"2009-08-11 00:29:30",1140828,4.133,138.6,2.943,0.123,20.54,109.9092,24.66,25.66,21.93,0,111.2,13.1,25.50,100.6
"2009-08-11 00:30:00",1140829,3.879,145.5,3.182,0.159,20.58,109.9128,24.67,25.67,21.89,0,111.2,13.1,25.51,107.5
"2009-08-11 00:30:30",1140830,3.603,148.2,1.604,0.222,20.55,109.9173,24.68,25.68,21.9,0,111.2,13.1,25.52,110.2
"2009-08-11 00:31:00",1140831,3.429,141.1,4.606,0.242,20.47,109.9233,24.7,25.69,21.99,0,111.2,13.1,25.54,103.1
"2009-08-11 00:31:30",1140832,3.244,140,1.618,0.221,20.45,109.9258,24.7,25.69,21.94,0,111.2,13.1,25.54,102.0
"2009-08-11 00:32:00",1140833,2.699,139.8,5.34,0.239,20.4,109.9307,24.72,25.69,21.93,0,111.2,13.1,25.55,101.8
"2009-08-11 00:32:30",1140834,2.662,133.5,2.657,0.192,20.53,109.9364,24.73,25.7,22.08,0,111.2,13.1,25.57,95.5
"2009-08-11 00:33:00",1140835,1.788,135.5,10.48,0.314,20.71,109.9375,24.73,25.71,22.16,0,111.2,13.1,25.57,97.5
"2009-08-11 00:33:30",1140836,2.805,114.6,2.855,0.339,20.83,109.9404,24.74,25.7,22.2,0,111.2,13.1,25.58,76.6
"2009-08-11 00:34:00",1140837,3.662,118.2,4.738,0.47,20.93,109.9305,24.72,25.7,22.22,0,111.2,13.1,25.55,80.2
"2009-08-11 00:34:30",1140838,3.683,118.7,4.185,0.248,21.03,109.9296,24.71,25.71,22.26,0,111.2,13.11,25.55,80.7
"2009-08-11 00:35:00",1140839,3.052,124,8.38,0.396,21.05,109.9287,24.71,25.7,22.33,0,111.2,13.1,25.55,86.0
"2009-08-11 00:35:30",1140840,2.766,126.6,6.197,0.191,21.09,109.9267,24.71,25.7,22.37,0,111.2,13.1,25.54,88.6
"2009-08-11 00:36:00",1140841,2.314,115.9,5.464,0.268,20.89,109.926,24.7,25.71,22.36,0,111.2,13.1,25.54,77.9
"2009-08-11 00:36:30",1140842,3.801,122.1,10.8,0.733,20.83,109.9222,24.69,25.7,22.36,0,111.2,13.1,25.53,84.1
"2009-08-11 00:37:00",1140843,4.382,138.3,5.104,0.305,20.99,109.9234,24.7,25.68,22.6,0,111.2,13.1,25.54,100.3
"2009-08-11 00:37:30",1140844,4.06,142.9,4.171,0.445,21.1,109.9255,24.7,25.68,22.65,0,111.2,13.1,25.54,104.9
"2009-08-11 00:38:00",1140845,5.224,131.6,3.335,0.492,21.11,109.911,24.67,25.68,22.77,0,111.2,13.1,25.50,93.6
"2009-08-11 00:38:30",1140846,5.345,127.9,3.157,0.246,21.14,109.8921,24.62,25.65,22.77,0,111.2,13.1,25.46,89.9
"2009-08-11 00:39:00",1140847,5.01,130.3,4.849,0.139,21.14,109.8911,24.61,25.62,22.82,0,111.2,13.1,25.45,92.3
"2009-08-11 00:39:30",1140848,4.278,136.3,4.247,0.253,21.13,109.874,24.57,25.59,22.79,0,111.2,13.1,25.41,98.3
"2009-08-11 00:40:00",1140849,4.26,129.5,3.925,0.208,21.1,109.8617,24.54,25.57,22.76,0,111.2,13.1,25.38,91.5
"2009-08-11 00:40:30",1140850,4.03,128.8,2.401,0.169,21.02,109.8631,24.54,25.54,22.68,0,111.2,13.1,25.38,90.8
"2009-08-11 00:41:00",1140851,4.54,125.2,3.044,0.412,20.92,109.853,24.52,25.53,22.72,0,111.2,13.1,25.35,87.2
"2009-08-11 00:41:30",1140852,4.709,128.1,2.216,0.222,20.88,109.8392,24.48,25.52,22.87,0,111.2,13.1,25.32,90.1
"2009-08-11 00:42:00",1140853,4.27,132.3,2.061,0.24,20.81,109.8343,24.47,25.51,22.92,0,111.2,13.11,25.31,94.3
"2009-08-11 00:42:30",1140854,4.512,133,1.705,0.264,20.7,109.8338,24.47,25.5,22.95,0,111.2,13.11,25.30,95.0
"2009-08-11 00:43:00",1140855,4.516,136.1,1.976,0.134,20.67,109.8173,24.43,25.47,22.92,0,111.2,13.11,25.26,98.1
"2009-08-11 00:43:30",1140856,4.644,133.1,2.453,0.211,20.68,109.8032,24.39,25.46,22.96,0,111.2,13.11,25.23,95.1
"2009-08-11 00:44:00",1140857,4.615,134.3,3.609,0.187,20.64,109.8013,24.38,25.44,23.02,0,111.2,13.11,25.22,96.3
"2009-08-11 00:44:30",1140858,4.952,137.2,3.034,0.486,20.67,109.8007,24.38,25.43,23.09,0,111.2,13.11,25.22,99.2
"2009-08-11 00:45:00",1140859,4.529,136,3.281,0.133,20.66,109.7965,24.37,25.4,23.28,0,111.2,13.12,25.21,98.0
"2009-08-11 00:45:30",1140860,4.898,133.6,3.088,0.136,20.67,109.7903,24.36,25.39,23.08,0,111.2,13.12,25.19,95.6
"2009-08-11 00:46:00",1140861,4.634,136.8,2.336,0.182,20.72,109.783,24.34,25.37,23.02,0,111.2,13.12,25.17,98.8
"2009-08-11 00:46:30",1140862,4.827,130.3,3.777,0.243,20.75,109.7757,24.32,25.38,23.17,0,111.2,13.12,25.16,92.3
"2009-08-11 00:47:00",1140863,4.09,136.8,2.152,0.347,20.7,109.7682,24.3,25.34,23.21,0,111.2,13.12,25.14,98.8
"2009-08-11 00:47:30",1140864,4.003,138.6,2.75,0.241,20.81,109.7676,24.3,25.34,23.44,0,111.2,13.12,25.13,100.6
"2009-08-11 00:48:00",1140865,3.887,136.8,1.966,0.141,20.89,109.7676,24.3,25.35,23.44,0,111.2,13.12,25.13,98.8
"2009-08-11 00:48:30",1140866,3.577,138,1.695,0.169,20.96,109.7676,24.3,25.36,23.47,0,111.2,13.12,25.13,100.0
"2009-08-11 00:49:00",1140867,3.756,141.5,2.815,0.187,20.91,109.7676,24.3,25.34,23.34,0,111.1,13.12,25.13,103.5
"2009-08-11 00:49:30",1140868,3.704,141.3,3.395,0.129,20.85,109.7676,24.3,25.34,23.48,0,111.2,13.12,25.13,103.3
"2009-08-11 00:50:00",1140869,4.096,136.2,2.124,0.085,20.84,109.7676,24.3,25.34,23.49,0,111.1,13.12,25.13,98.2
"2009-08-11 00:50:30",1140870,3.952,138.1,2.893,0.179,20.85,109.7676,24.3,25.33,23.58,0,111.1,13.12,25.13,100.1
"2009-08-11 00:51:00",1140871,3.625,144.8,1.692,0.062,20.87,109.7676,24.3,25.33,23.7,0,111.1,13.12,25.13,106.8
"2009-08-11 00:51:30",1140872,3.559,143.4,3.347,0.134,20.91,109.7679,24.3,25.32,23.72,0,111.1,13.12,25.13,105.4
"2009-08-11 00:52:00",1140873,3.501,138,4.849,0.232,21.02,109.7682,24.3,25.33,23.65,0,111.1,13.12,25.14,100.0
"2009-08-11 00:52:30",1140874,3.395,139.2,1.887,0.152,21.07,109.7679,24.3,25.3,23.65,0,111.1,13.12,25.13,101.2
"2009-08-11 00:53:00",1140875,3.691,137.5,1.121,0.172,21.14,109.7674,24.3,25.32,23.66,0,111.1,13.12,25.13,99.5
"2009-08-11 00:53:30",1140876,3.499,136.1,2.532,0.152,21.15,109.7587,24.27,25.32,23.64,0,111.1,13.11,25.11,98.1
"2009-08-11 00:54:00",1140877,3.464,135.9,1.504,0.077,21.2,109.75,24.25,25.3,23.44,0,111.1,13.11,25.09,97.9
"2009-08-11 00:54:30",1140878,3.232,130.1,3.171,0.152,21.18,109.7447,24.24,25.3,23.48,0,111.1,13.11,25.08,92.1
"2009-08-11 00:55:00",1140879,3.482,137.1,1.661,0.155,21.25,109.7394,24.23,25.28,23.57,0,111.1,13.11,25.06,99.1
"2009-08-11 00:55:30",1140880,3.828,138.8,2.039,0.177,21.24,109.7432,24.23,25.28,23.77,0,111.1,13.11,25.07,100.8
"2009-08-11 00:56:00",1140881,3.891,135.2,1.478,0.1,21.23,109.7499,24.25,25.28,24.01,0,111.1,13.11,25.09,97.2
"2009-08-11 00:56:30",1140882,3.832,137.8,2.102,0.192,21.26,109.7517,24.26,25.26,24.08,0,111.1,13.11,25.09,99.8
"2009-08-11 00:57:00",1140883,3.76,138.2,2.833,0.235,21.3,109.7387,24.22,25.26,24.1,0,111.1,13.11,25.06,100.2
"2009-08-11 00:57:30",1140884,3.589,138.5,2.875,0.3,21.29,109.7301,24.2,25.24,24.13,0,111.1,13.11,25.04,100.5
"2009-08-11 00:58:00",1140885,4.116,135.5,2.764,0.25,21.24,109.7279,24.2,25.22,24.25,0,111.1,13.11,25.03,97.5
"2009-08-11 00:58:30",1140886,3.694,130.5,3.986,0.215,21.27,109.7257,24.19,25.21,24.33,0,111.1,13.12,25.03,92.5
"2009-08-11 00:59:00",1140887,3.602,134,2.898,0.134,21.27,109.7089,24.15,25.19,24.23,0,111.1,13.12,24.98,96.0
"2009-08-11 00:59:30",1140888,3.522,140.9,1.151,0.093,21.3,109.6971,24.12,25.18,24,0,111.1,13.12,24.95,102.9
"2009-08-11 01:00:00",1140889,3.38,139.8,2.617,0.111,21.33,109.6967,24.12,25.15,23.98,0,111.1,13.12,24.95,101.8
"2009-08-11 01:00:30",1140890,3.692,134.7,2.814,0.126,21.3,109.698,24.12,25.15,24.26,0,111.1,13.12,24.95,96.7
"2009-08-11 01:01:00",1140891,3.391,132.8,1.667,0.241,21.29,109.6788,24.07,25.14,24.51,0,111.1,13.12,24.91,94.8
"2009-08-11 01:01:30",1140892,3.533,132.1,2.705,0.277,21.26,109.6712,24.05,25.11,24.59,0,111.1,13.12,24.89,94.1
"2009-08-11 01:02:00",1140893,3.741,124.9,4.611,0.09,21.26,109.6698,24.05,25.1,24.68,0,111.1,13.12,24.88,86.9
"2009-08-11 01:02:30",1140894,3.794,130.1,3.031,0.123,21.27,109.6662,24.04,25.09,24.78,0,111.1,13.12,24.87,92.1
"2009-08-11 01:03:00",1140895,3.696,135.3,2.775,0.168,21.27,109.6457,23.98,25.06,24.83,0,111.1,13.13,24.82,97.3
"2009-08-11 01:03:30",1140896,3.511,135.6,1.893,0.145,21.28,109.637,23.96,25.05,24.74,0,111.1,13.13,24.80,97.6
"2009-08-11 01:04:00",1140897,3.992,133.2,1.727,0.125,21.26,109.6353,23.96,25.03,24.89,0,111.1,13.13,24.79,95.2
"2009-08-11 01:04:30",1140898,4.175,132.3,1.045,0.168,21.23,109.6224,23.92,25.01,25.02,0,111.1,13.13,24.76,94.3
"2009-08-11 01:05:00",1140899,4.189,130,1.853,0.126,21.25,109.6089,23.89,24.99,24.96,0,111.1,13.13,24.73,92.0
"2009-08-11 01:05:30",1140900,4.248,129.1,1.866,0.065,21.24,109.6024,23.87,24.98,24.86,0,111.1,13.13,24.71,91.1
"2009-08-11 01:06:00",1140901,4.092,127.5,2.342,0.084,21.21,109.5988,23.86,24.96,24.79,0,111.1,13.13,24.70,89.5
"2009-08-11 01:06:30",1140902,4.094,125.4,1.436,0.067,21.24,109.5805,23.82,24.94,24.81,0,111.1,13.13,24.65,87.4
"2009-08-11 01:07:00",1140903,4.005,128.4,2.381,0.097,21.22,109.5707,23.79,24.91,24.82,0,111.1,13.13,24.63,90.4
"2009-08-11 01:07:30",1140904,4.179,131.2,0.736,0.098,21.2,109.5687,23.79,24.9,24.87,0,111.1,13.14,24.62,93.2
"2009-08-11 01:08:00",1140905,4.153,132.6,1.453,0.153,21.23,109.5679,23.78,24.87,24.96,0,111.1,13.14,24.62,94.6
"2009-08-11 01:08:30",1140906,4.236,129,2.921,0.099,21.23,109.5557,23.75,24.85,25.02,0,111.1,13.14,24.59,91.0
"2009-08-11 01:09:00",1140907,4.01,130.2,1.121,0.093,21.22,109.543,23.72,24.84,25.09,0,111.1,13.14,24.56,92.2
"2009-08-11 01:09:30",1140908,3.992,130.5,0.882,0.149,21.22,109.5449,23.73,24.83,25.16,0,111.1,13.14,24.56,92.5
"2009-08-11 01:10:00",1140909,3.926,128.1,2.065,0.109,21.22,109.5513,23.74,24.8,25.07,0,111.1,13.14,24.58,90.1
"2009-08-11 01:10:30",1140910,3.536,122.7,2.543,0.118,21.26,109.5549,23.75,24.8,25.05,0,111.1,13.13,24.59,84.7
"2009-08-11 01:11:00",1140911,3.706,122.3,1.085,0.169,21.29,109.5401,23.71,24.78,25.07,0,111.1,13.13,24.55,84.3
"2009-08-11 01:11:30",1140912,3.802,125.4,2.879,0.081,21.29,109.5323,23.69,24.74,24.97,0,111.1,13.13,24.53,87.4
"2009-08-11 01:12:00",1140913,3.617,129.9,1.822,0.137,21.3,109.5293,23.69,24.74,25.12,0,111.1,13.13,24.52,91.9
"2009-08-11 01:12:30",1140914,3.996,127.2,1.357,0.101,21.28,109.529,23.68,24.73,25.08,0,111.1,13.13,24.52,89.2
"2009-08-11 01:13:00",1140915,4.197,126.7,1.958,0.079,21.38,109.5265,23.68,24.71,24.93,0,111,13.13,24.51,88.7
"2009-08-11 01:13:30",1140916,4.002,130.1,1.478,0.159,21.35,109.5232,23.67,24.72,24.87,0,111.1,13.13,24.50,92.1
"2009-08-11 01:14:00",1140917,3.708,133.4,2.46,0.104,21.37,109.5097,23.63,24.69,24.86,0,111.1,13.13,24.47,95.4
"2009-08-11 01:14:30",1140918,3.774,130.3,2.502,0.156,21.36,109.5045,23.62,24.69,24.86,0,111,13.13,24.46,92.3
"2009-08-11 01:15:00",1140919,3.989,122.4,2.173,0.127,21.36,109.503,23.62,24.67,24.89,0,111,13.13,24.45,84.4
"2009-08-11 01:15:30",1140920,3.703,123.6,2.199,0.201,21.34,109.5042,23.62,24.66,24.92,0,111,13.13,24.46,85.6
"2009-08-11 01:16:00",1140921,3.754,126.3,3.785,0.07,21.34,109.5045,23.62,24.64,24.92,0,111,13.14,24.46,88.3
"2009-08-11 01:16:30",1140922,3.67,129,1.518,0.12,21.37,109.502,23.62,24.64,24.92,0,111,13.14,24.45,91.0
"2009-08-11 01:17:00",1140923,3.507,126.5,1.902,0.118,21.34,109.4902,23.58,24.63,24.89,0,111,13.14,24.42,88.5
"2009-08-11 01:17:30",1140924,3.324,126.3,2.297,0.122,21.24,109.4838,23.57,24.61,24.89,0,111,13.14,24.40,88.3
"2009-08-11 01:18:00",1140925,3.462,124.5,3.347,0.134,21.19,109.4795,23.56,24.61,24.93,0,111,13.14,24.39,86.5
"2009-08-11 01:18:30",1140926,3.481,118.4,4.808,0.089,21.1,109.4767,23.55,24.61,25.09,0,111,13.14,24.38,80.4
"2009-08-11 01:19:00",1140927,3.191,125.3,1.811,0.141,21.11,109.4728,23.54,24.6,25.03,0,111,13.14,24.37,87.3
"2009-08-11 01:19:30",1140928,3.649,119,1.963,0.169,21.12,109.4714,23.54,24.58,25.06,0,111,13.14,24.37,81.0
"2009-08-11 01:20:00",1140929,3.586,115.5,1.242,0.08,21.14,109.4708,23.54,24.59,25.12,0,111,13.14,24.37,77.5
"2009-08-11 01:20:30",1140930,3.473,119,4.39,0.178,21.21,109.4708,23.54,24.57,25.11,0,111,13.14,24.37,81.0
"2009-08-11 01:21:00",1140931,3.45,123.6,3.356,0.142,21.26,109.4708,23.54,24.59,25.1,0,111,13.15,24.37,85.6
"2009-08-11 01:21:30",1140932,3.521,122.4,1.594,0.074,21.29,109.4708,23.54,24.57,25.09,0,111,13.15,24.37,84.4
"2009-08-11 01:22:00",1140933,3.626,121.2,1.85,0.076,21.24,109.4708,23.54,24.58,25.06,0,111,13.15,24.37,83.2
"2009-08-11 01:22:30",1140934,3.533,121.5,1.894,0.073,21.28,109.4708,23.54,24.58,25.03,0,111,13.15,24.37,83.5
"2009-08-11 01:23:00",1140935,3.612,121.3,1.604,0.089,21.26,109.4708,23.54,24.57,25.03,0,111,13.15,24.37,83.3
"2009-08-11 01:23:30",1140936,3.383,120.6,2.438,0.067,21.28,109.4727,23.54,24.57,25.05,0,111,13.15,24.37,82.6
"2009-08-11 01:24:00",1140937,3.409,124.6,0.545,0.057,21.27,109.4776,23.55,24.56,25.06,0,111,13.15,24.39,86.6
"2009-08-11 01:24:30",1140938,3.327,125.4,1.361,0.049,21.29,109.4825,23.57,24.57,25.06,0,111,13.15,24.40,87.4
"2009-08-11 01:25:00",1140939,3.496,127.3,2.149,0.084,21.34,109.4865,23.58,24.56,25.03,0,111,13.15,24.41,89.3
"2009-08-11 01:25:30",1140940,3.534,125.3,1.833,0.055,21.33,109.4933,23.59,24.55,24.96,0,111,13.15,24.43,87.3
"2009-08-11 01:26:00",1140941,3.521,124.4,1.509,0.118,21.32,109.4958,23.6,24.57,24.97,0,111,13.15,24.43,86.4
"2009-08-11 01:26:30",1140942,3.473,123.8,1.361,0.058,21.35,109.4982,23.61,24.55,24.98,0,111,13.15,24.44,85.8
"2009-08-11 01:27:00",1140943,3.524,123.5,1.44,0.064,21.32,109.4974,23.6,24.56,24.96,0,111,13.15,24.44,85.5
"2009-08-11 01:27:30",1140944,3.606,123,1.282,0.037,21.33,109.4929,23.59,24.55,24.93,0,111,13.14,24.43,85.0
"2009-08-11 01:28:00",1140945,3.763,124.4,1.181,0.082,21.27,109.4837,23.57,24.55,24.92,0,111,13.14,24.40,86.4
"2009-08-11 01:28:30",1140946,4.011,125.7,1.043,0.113,21.31,109.4793,23.56,24.55,24.92,0,111,13.14,24.39,87.7
"2009-08-11 01:29:00",1140947,4.224,126.3,0.751,0.088,21.34,109.4777,23.55,24.55,24.93,0,111,13.14,24.39,88.3
"2009-08-11 01:29:30",1140948,4.473,129.5,1.467,0.094,21.25,109.4774,23.55,24.55,25.2,0,111,13.14,24.39,91.5
"2009-08-11 01:30:00",1140949,4.35,129.9,1.677,0.127,21.23,109.477,23.55,24.54,25.49,0,111,13.14,24.39,91.9
"2009-08-11 01:30:30",1140950,4.177,131.2,3.268,0.079,21.25,109.4738,23.54,24.54,25.38,0,111,13.14,24.38,93.2
"2009-08-11 01:31:00",1140951,4.391,137.4,0.957,0.052,21.22,109.474,23.54,24.54,25.53,0,111,13.14,24.38,99.4
"2009-08-11 01:31:30",1140952,4.523,141.7,3.192,0.2,21.17,109.474,23.54,24.53,25.58,0,111,13.14,24.38,103.7
"2009-08-11 01:32:00",1140953,4.853,150.1,3.14,0.119,21.14,109.474,23.54,24.52,25.65,0,111,13.14,24.38,112.1
"2009-08-11 01:32:30",1140954,4.456,155.1,8.01,0.274,20.95,109.474,23.54,24.53,26.26,0,111,13.15,24.38,117.1
"2009-08-11 01:33:00",1140955,4.399,155.6,9.13,0.207,20.89,109.474,23.54,24.53,27.33,0,111,13.15,24.38,117.6
"2009-08-11 01:33:30",1140956,4.023,156.9,4.883,0.421,20.87,109.474,23.54,24.52,26.71,0,111,13.15,24.38,118.9
"2009-08-11 01:34:00",1140957,3.605,162.3,2.013,0.233,20.88,109.4636,23.52,24.52,27.35,0,111,13.15,24.35,124.3
"2009-08-11 01:34:30",1140958,3.315,161.1,2.687,0.159,20.85,109.4482,23.48,24.5,28.21,0,111,13.15,24.31,123.1
"2009-08-11 01:35:00",1140959,3.683,166,4.671,0.185,20.88,109.4431,23.46,24.49,28.82,0,111,13.15,24.30,128.0
"2009-08-11 01:35:30",1140960,4.123,175.2,2.214,0.137,20.86,109.4406,23.46,24.49,29.48,0,111,13.15,24.29,137.2
"2009-08-11 01:36:00",1140961,4.138,173.5,2.065,0.148,20.85,109.4403,23.46,24.49,29.56,0,111,13.15,24.29,135.5
"2009-08-11 01:36:30",1140962,4.116,165.5,2.29,0.193,20.88,109.4403,23.46,24.48,29.53,0,111,13.15,24.29,127.5
"2009-08-11 01:37:00",1140963,3.849,171.3,2.83,0.228,20.92,109.4327,23.44,24.47,29.63,0,111,13.15,24.27,133.3
"2009-08-11 01:37:30",1140964,4.019,172.3,4.579,0.318,20.94,109.4122,23.38,24.46,29.69,0,111,13.15,24.22,134.3
"2009-08-11 01:38:00",1140965,3.884,176.5,3.319,0.247,21,109.4066,23.37,24.44,29.73,0,111,13.15,24.20,138.5
"2009-08-11 01:38:30",1140966,3.741,172.1,2.568,0.303,21.01,109.4066,23.37,24.42,29.86,0,111,13.15,24.20,134.1
"2009-08-11 01:39:00",1140967,4.254,173,1.994,0.074,21.08,109.4007,23.36,24.42,29.72,0,111,13.15,24.19,135.0
"2009-08-11 01:39:30",1140968,4.54,171.9,1.221,0.169,21.07,109.3785,23.3,24.39,29.51,0,111,13.15,24.13,133.9
"2009-08-11 01:40:00",1140969,4.664,170.4,2.11,0.096,21.07,109.3741,23.29,24.38,29.53,0,111,13.15,24.12,132.4
"2009-08-11 01:40:30",1140970,4.844,174.9,1.088,0.144,21.06,109.372,23.28,24.35,29.67,0,111,13.16,24.11,136.9
"2009-08-11 01:41:00",1140971,5.047,175.6,0.908,0.121,21.04,109.3486,23.22,24.33,29.84,0,111,13.16,24.05,137.6
"2009-08-11 01:41:30",1140972,4.685,173.7,2.988,0.111,21.05,109.3432,23.21,24.3,29.9,0,111,13.16,24.04,135.7
"2009-08-11 01:42:00",1140973,4.677,174.3,1.367,0.216,21.08,109.3355,23.19,24.29,29.88,0,111,13.16,24.02,136.3
"2009-08-11 01:42:30",1140974,4.895,173.6,2.677,0.123,21.1,109.3148,23.13,24.26,29.92,0,111,13.16,23.97,135.6
"2009-08-11 01:43:00",1140975,4.886,181.6,1.588,0.135,21.04,109.3095,23.12,24.24,30.12,0,111,13.16,23.95,143.6
"2009-08-11 01:43:30",1140976,4.632,183.2,0.853,0.102,21,109.3079,23.12,24.22,30.18,0,111,13.16,23.95,145.2
"2009-08-11 01:44:00",1140977,4.573,181.6,1.906,0.129,21.01,109.307,23.11,24.2,30.4,0,111,13.16,23.95,143.6
"2009-08-11 01:44:30",1140978,4.678,183,1.499,0.11,20.97,109.2913,23.07,24.18,30.47,0,111,13.15,23.91,145.0
"2009-08-11 01:45:00",1140979,4.797,181.4,1.334,0.104,21.03,109.2824,23.05,24.15,30.41,0,111,13.15,23.88,143.4
"2009-08-11 01:45:30",1140980,4.431,180.8,2.641,0.196,21.03,109.2899,23.07,24.14,30.39,0,111,13.15,23.90,142.8
"2009-08-11 01:46:00",1140981,4.245,184.7,1.677,0.223,21.02,109.2905,23.07,24.11,30.63,0,111,13.15,23.90,146.7
"2009-08-11 01:46:30",1140982,4.447,184.3,2.403,0.208,21.08,109.2908,23.07,24.11,30.65,0,111,13.15,23.91,146.3
"2009-08-11 01:47:00",1140983,4.761,177.9,1.754,0.218,21.08,109.2828,23.05,24.09,30.27,0,111,13.15,23.88,139.9
"2009-08-11 01:47:30",1140984,4.642,178.7,1.879,0.152,21.09,109.2695,23.02,24.08,30.22,0,111,13.15,23.85,140.7
"2009-08-11 01:48:00",1140985,4.87,177.9,2.483,0.157,21.14,109.2658,23.01,24.07,30.25,0,110.9,13.15,23.84,139.9